contact:dominique.lefevre@mio.osupytheas.fr, maurice.libes@osupytheas.fr, didier.mallarino@osupytheas.fr
Project:EMSO http://www.emso-fr.org/EMSO-France
Depth: 2436.0 m
Title:EMSO Ligure Ouest : Data MII capteur MICROCAT
DateTime_Computer,Latitude,Longitude,Temperature,Conductivity,Pressure,DateTime_Instrument
DateTime_Computer,Latitude,Longitude,degC,S m-1,dbar,DateTime_Instrument
2022-07-12T00:00:32Z,42.805,6.029,13.3031,4.60087,2470.497,2022-7-12T02:02:18Z
2022-07-12T00:03:35Z,42.805,6.029,13.3034,4.60079,2470.544,2022-7-12T02:05:21Z
2022-07-12T00:06:38Z,42.805,6.029,13.3023,4.60083,2470.483,2022-7-12T02:08:24Z
2022-07-12T00:09:41Z,42.805,6.029,13.3041,4.60121,2470.507,2022-7-12T02:11:27Z
2022-07-12T00:12:44Z,42.805,6.029,13.3040,4.60099,2470.511,2022-7-12T02:14:30Z
2022-07-12T00:15:47Z,42.805,6.029,13.3039,4.60068,2470.47,2022-7-12T02:17:33Z
2022-07-12T00:18:50Z,42.805,6.029,13.3028,4.60084,2470.483,2022-7-12T02:20:36Z
2022-07-12T00:21:53Z,42.805,6.029,13.3031,4.60086,2470.483,2022-7-12T02:23:39Z
2022-07-12T00:24:57Z,42.805,6.029,13.3029,4.60094,2470.52,2022-7-12T02:26:43Z
2022-07-12T00:28:00Z,42.805,6.029,13.3057,4.60099,2470.497,2022-7-12T02:29:46Z
2022-07-12T00:31:03Z,42.805,6.029,13.3041,4.60056,2470.474,2022-7-12T02:32:49Z
2022-07-12T00:34:06Z,42.805,6.029,13.3032,4.60100,2470.52,2022-7-12T02:35:52Z
2022-07-12T00:37:09Z,42.805,6.029,13.3031,4.60079,2470.497,2022-7-12T02:38:55Z
2022-07-12T00:40:12Z,42.805,6.029,13.3048,4.60074,2470.52,2022-7-12T02:41:58Z
2022-07-12T00:43:15Z,42.805,6.029,13.3029,4.60056,2470.52,2022-7-12T02:45:01Z
2022-07-12T00:46:18Z,42.805,6.029,13.3041,4.60075,2470.507,2022-7-12T02:48:04Z
2022-07-12T00:49:22Z,42.805,6.029,13.3017,4.60066,2470.483,2022-7-12T02:51:08Z
2022-07-12T00:52:25Z,42.805,6.029,13.3024,4.60074,2470.483,2022-7-12T02:54:11Z
2022-07-12T00:55:28Z,42.805,6.029,13.3032,4.60066,2470.497,2022-7-12T02:57:14Z
2022-07-12T00:58:31Z,42.805,6.029,13.3019,4.60084,2470.483,2022-7-12T03:00:17Z
2022-07-12T01:01:34Z,42.805,6.029,13.3025,4.60064,2470.483,2022-7-12T03:03:20Z
2022-07-12T01:04:37Z,42.805,6.029,13.3044,4.60052,2470.52,2022-7-12T03:06:23Z
2022-07-12T01:07:40Z,42.805,6.029,13.3030,4.60087,2470.507,2022-7-12T03:09:26Z
2022-07-12T01:10:43Z,42.805,6.029,13.3034,4.60087,2470.53,2022-7-12T03:12:29Z
2022-07-12T01:13:47Z,42.805,6.029,13.3036,4.60070,2470.52,2022-7-12T03:15:32Z
2022-07-12T01:16:50Z,42.805,6.029,13.3037,4.60061,2470.507,2022-7-12T03:18:36Z
2022-07-12T01:19:53Z,42.805,6.029,13.3034,4.60084,2470.544,2022-7-12T03:21:39Z
2022-07-12T01:22:56Z,42.805,6.029,13.3056,4.60102,2470.483,2022-7-12T03:24:42Z
2022-07-12T01:25:59Z,42.805,6.029,13.3034,4.60080,2470.53,2022-7-12T03:27:45Z
2022-07-12T01:29:02Z,42.805,6.029,13.3015,4.60076,2470.507,2022-7-12T03:30:48Z
2022-07-12T01:32:05Z,42.805,6.029,13.3017,4.60074,2470.52,2022-7-12T03:33:51Z
2022-07-12T01:35:08Z,42.805,6.029,13.3029,4.60101,2470.52,2022-7-12T03:36:54Z
2022-07-12T01:38:11Z,42.805,6.029,13.3031,4.60070,2470.507,2022-7-12T03:39:57Z
2022-07-12T01:41:15Z,42.805,6.029,13.3043,4.60088,2470.483,2022-7-12T03:43:01Z
2022-07-12T01:44:18Z,42.805,6.029,13.3060,4.60106,2470.507,2022-7-12T03:46:04Z
2022-07-12T01:47:21Z,42.805,6.029,13.3034,4.60074,2470.507,2022-7-12T03:49:07Z
2022-07-12T01:50:24Z,42.805,6.029,13.3047,4.60074,2470.507,2022-7-12T03:52:10Z
2022-07-12T01:53:27Z,42.805,6.029,13.3044,4.60094,2470.507,2022-7-12T03:55:13Z
2022-07-12T01:56:30Z,42.805,6.029,13.3039,4.60066,2470.52,2022-7-12T03:58:16Z
2022-07-12T01:59:33Z,42.805,6.029,13.3045,4.60089,2470.507,2022-7-12T04:01:19Z
2022-07-12T02:02:36Z,42.805,6.029,13.3035,4.60069,2470.52,2022-7-12T04:04:22Z
2022-07-12T02:05:40Z,42.805,6.029,13.3027,4.60064,2470.52,2022-7-12T04:07:26Z
2022-07-12T02:08:43Z,42.805,6.029,13.3029,4.60056,2470.516,2022-7-12T04:10:29Z
2022-07-12T02:11:46Z,42.805,6.029,13.3029,4.60058,2470.53,2022-7-12T04:13:32Z
2022-07-12T02:14:49Z,42.805,6.029,13.3029,4.60067,2470.53,2022-7-12T04:16:35Z
2022-07-12T02:17:52Z,42.805,6.029,13.3031,4.60061,2470.544,2022-7-12T04:19:38Z
2022-07-12T02:20:55Z,42.805,6.029,13.3031,4.60049,2470.507,2022-7-12T04:22:41Z
2022-07-12T02:23:58Z,42.805,6.029,13.3039,4.60060,2470.539,2022-7-12T04:25:44Z
2022-07-12T02:27:01Z,42.805,6.029,13.3039,4.60079,2470.507,2022-7-12T04:28:47Z
2022-07-12T02:30:05Z,42.805,6.029,13.3033,4.60072,2470.53,2022-7-12T04:31:51Z
2022-07-12T02:33:08Z,42.805,6.029,13.3043,4.60072,2470.544,2022-7-12T04:34:54Z
2022-07-12T02:36:11Z,42.805,6.029,13.3039,4.60059,2470.553,2022-7-12T04:37:57Z
2022-07-12T02:39:14Z,42.805,6.029,13.3041,4.60064,2470.553,2022-7-12T04:41:00Z
2022-07-12T02:42:17Z,42.805,6.029,13.3031,4.60069,2470.53,2022-7-12T04:44:03Z
2022-07-12T02:45:20Z,42.805,6.029,13.3039,4.60059,2470.553,2022-7-12T04:47:06Z
2022-07-12T02:48:23Z,42.805,6.029,13.3029,4.60062,2470.553,2022-7-12T04:50:09Z
2022-07-12T02:51:26Z,42.805,6.029,13.3034,4.60061,2470.567,2022-7-12T04:53:12Z
2022-07-12T02:54:30Z,42.805,6.029,13.3031,4.60068,2470.567,2022-7-12T04:56:16Z
2022-07-12T02:57:33Z,42.805,6.029,13.3034,4.60059,2470.553,2022-7-12T04:59:19Z
2022-07-12T03:00:36Z,42.805,6.029,13.3029,4.60057,2470.553,2022-7-12T05:02:22Z
2022-07-12T03:03:39Z,42.805,6.029,13.3036,4.60057,2470.539,2022-7-12T05:05:25Z
2022-07-12T03:06:42Z,42.805,6.029,13.3050,4.60069,2470.591,2022-7-12T05:08:28Z
2022-07-12T03:09:45Z,42.805,6.029,13.3034,4.60076,2470.567,2022-7-12T05:11:31Z
2022-07-12T03:12:48Z,42.805,6.029,13.3041,4.60073,2470.567,2022-7-12T05:14:34Z
2022-07-12T03:15:51Z,42.805,6.029,13.3029,4.60076,2470.577,2022-7-12T05:17:37Z
2022-07-12T03:18:54Z,42.805,6.029,13.3039,4.60059,2470.591,2022-7-12T05:20:40Z
2022-07-12T03:21:58Z,42.805,6.029,13.3035,4.60058,2470.567,2022-7-12T05:23:44Z
2022-07-12T03:25:01Z,42.805,6.029,13.3042,4.60061,2470.614,2022-7-12T05:26:47Z
2022-07-12T03:28:04Z,42.805,6.029,13.3033,4.60057,2470.577,2022-7-12T05:29:50Z
2022-07-12T03:31:07Z,42.805,6.029,13.3047,4.60068,2470.624,2022-7-12T05:32:53Z
2022-07-12T03:34:10Z,42.805,6.029,13.3038,4.60077,2470.6,2022-7-12T05:35:56Z
2022-07-12T03:37:13Z,42.805,6.029,13.3040,4.60074,2470.6,2022-7-12T05:38:59Z
2022-07-12T03:40:16Z,42.805,6.029,13.3043,4.60060,2470.591,2022-7-12T05:42:02Z
2022-07-12T03:43:19Z,42.805,6.029,13.3029,4.60064,2470.6,2022-7-12T05:45:05Z
2022-07-12T03:46:23Z,42.805,6.029,13.3042,4.60067,2470.614,2022-7-12T05:48:09Z
2022-07-12T03:49:26Z,42.805,6.029,13.3022,4.60072,2470.577,2022-7-12T05:51:12Z
2022-07-12T03:52:29Z,42.805,6.029,13.3025,4.60066,2470.614,2022-7-12T05:54:15Z
2022-07-12T03:55:32Z,42.805,6.029,13.3036,4.60068,2470.637,2022-7-12T05:57:18Z
2022-07-12T03:58:35Z,42.805,6.029,13.3035,4.60073,2470.624,2022-7-12T06:00:21Z
2022-07-12T04:01:38Z,42.805,6.029,13.3041,4.60061,2470.6,2022-7-12T06:03:24Z
2022-07-12T04:04:41Z,42.805,6.029,13.3034,4.60061,2470.614,2022-7-12T06:06:27Z
2022-07-12T04:07:44Z,42.805,6.029,13.3035,4.60081,2470.614,2022-7-12T06:09:30Z
2022-07-12T04:10:47Z,42.805,6.029,13.3036,4.60062,2470.614,2022-7-12T06:12:33Z
2022-07-12T04:13:51Z,42.805,6.029,13.3031,4.60066,2470.6,2022-7-12T06:15:37Z
2022-07-12T04:16:54Z,42.805,6.029,13.3039,4.60051,2470.6,2022-7-12T06:18:40Z
2022-07-12T04:19:57Z,42.805,6.029,13.3024,4.60069,2470.577,2022-7-12T06:21:43Z
2022-07-12T04:23:00Z,42.805,6.029,13.3040,4.60060,2470.637,2022-7-12T06:24:46Z
2022-07-12T04:26:03Z,42.805,6.029,13.3029,4.60068,2470.6,2022-7-12T06:27:49Z
2022-07-12T04:29:06Z,42.805,6.029,13.3048,4.60056,2470.614,2022-7-12T06:30:52Z
2022-07-12T04:32:09Z,42.805,6.029,13.3039,4.60069,2470.614,2022-7-12T06:33:55Z
2022-07-12T04:35:13Z,42.805,6.029,13.3036,4.60068,2470.6,2022-7-12T06:36:58Z
2022-07-12T04:38:16Z,42.805,6.029,13.3043,4.60088,2470.637,2022-7-12T06:40:02Z
2022-07-12T04:41:19Z,42.805,6.029,13.3041,4.60074,2470.624,2022-7-12T06:43:05Z
2022-07-12T04:44:22Z,42.805,6.029,13.3043,4.60067,2470.624,2022-7-12T06:46:08Z
2022-07-12T04:47:25Z,42.805,6.029,13.3027,4.60065,2470.6,2022-7-12T06:49:11Z
2022-07-12T04:50:28Z,42.805,6.029,13.3026,4.60070,2470.637,2022-7-12T06:52:14Z
2022-07-12T04:53:31Z,42.805,6.029,13.3034,4.60067,2470.637,2022-7-12T06:55:17Z
2022-07-12T04:56:34Z,42.805,6.029,13.3051,4.60055,2470.646,2022-7-12T06:58:20Z
2022-07-12T04:59:37Z,42.805,6.029,13.3034,4.60062,2470.637,2022-7-12T07:01:23Z
2022-07-12T05:02:41Z,42.805,6.029,13.3035,4.60057,2470.624,2022-7-12T07:04:27Z
2022-07-12T05:05:44Z,42.805,6.029,13.3046,4.60064,2470.646,2022-7-12T07:07:30Z
2022-07-12T05:08:47Z,42.805,6.029,13.3039,4.60072,2470.624,2022-7-12T07:10:33Z
2022-07-12T05:11:50Z,42.805,6.029,13.3043,4.60072,2470.661,2022-7-12T07:13:36Z
2022-07-12T05:14:53Z,42.805,6.029,13.3058,4.60072,2470.614,2022-7-12T07:16:39Z
2022-07-12T05:17:56Z,42.805,6.029,13.3049,4.60062,2470.637,2022-7-12T07:19:42Z
2022-07-12T05:20:59Z,42.805,6.029,13.3038,4.60096,2470.624,2022-7-12T07:22:45Z
2022-07-12T05:24:02Z,42.805,6.029,13.3048,4.60062,2470.624,2022-7-12T07:25:48Z
2022-07-12T05:27:06Z,42.805,6.029,13.3042,4.60104,2470.624,2022-7-12T07:28:52Z
2022-07-12T05:30:09Z,42.805,6.029,13.3044,4.60059,2470.646,2022-7-12T07:31:55Z
2022-07-12T05:33:12Z,42.805,6.029,13.3050,4.60061,2470.661,2022-7-12T07:34:58Z
2022-07-12T05:36:15Z,42.805,6.029,13.3019,4.60064,2470.646,2022-7-12T07:38:01Z
2022-07-12T05:39:18Z,42.805,6.029,13.3033,4.60092,2470.624,2022-7-12T07:41:04Z
2022-07-12T05:42:21Z,42.805,6.029,13.3047,4.60072,2470.624,2022-7-12T07:44:07Z
2022-07-12T05:45:24Z,42.805,6.029,13.3041,4.60059,2470.646,2022-7-12T07:47:10Z
2022-07-12T05:48:27Z,42.805,6.029,13.3031,4.60082,2470.6,2022-7-12T07:50:13Z
2022-07-12T05:51:31Z,42.805,6.029,13.3048,4.60078,2470.624,2022-7-12T07:53:17Z
2022-07-12T05:54:34Z,42.805,6.029,13.3056,4.60097,2470.646,2022-7-12T07:56:20Z
2022-07-12T05:57:37Z,42.805,6.029,13.3041,4.60074,2470.624,2022-7-12T07:59:23Z
2022-07-12T06:00:40Z,42.805,6.029,13.3031,4.60084,2470.6,2022-7-12T08:02:26Z
2022-07-12T06:03:43Z,42.805,6.029,13.3042,4.60076,2470.646,2022-7-12T08:05:29Z
2022-07-12T06:06:46Z,42.805,6.029,13.3056,4.60079,2470.624,2022-7-12T08:08:32Z
2022-07-12T06:09:49Z,42.805,6.029,13.3040,4.60092,2470.624,2022-7-12T08:11:35Z
2022-07-12T06:12:52Z,42.805,6.029,13.3044,4.60072,2470.6,2022-7-12T08:14:38Z
2022-07-12T06:15:56Z,42.805,6.029,13.3028,4.60052,2470.661,2022-7-12T08:17:42Z
2022-07-12T06:18:59Z,42.805,6.029,13.3026,4.60074,2470.637,2022-7-12T08:20:45Z
2022-07-12T06:22:02Z,42.805,6.029,13.3039,4.60067,2470.637,2022-7-12T08:23:48Z
2022-07-12T06:25:05Z,42.805,6.029,13.3039,4.60079,2470.6,2022-7-12T08:26:51Z
2022-07-12T06:28:08Z,42.805,6.029,13.3031,4.60082,2470.624,2022-7-12T08:29:54Z
2022-07-12T06:31:11Z,42.805,6.029,13.3035,4.60084,2470.661,2022-7-12T08:32:57Z
2022-07-12T06:34:14Z,42.805,6.029,13.3038,4.60064,2470.646,2022-7-12T08:36:00Z
2022-07-12T06:37:17Z,42.805,6.029,13.3041,4.60061,2470.637,2022-7-12T08:39:03Z
2022-07-12T06:40:20Z,42.805,6.029,13.3035,4.60080,2470.6,2022-7-12T08:42:06Z
2022-07-12T06:43:24Z,42.805,6.029,13.3056,4.60076,2470.6,2022-7-12T08:45:10Z
2022-07-12T06:46:27Z,42.805,6.029,13.3048,4.60092,2470.624,2022-7-12T08:48:13Z
2022-07-12T06:49:30Z,42.805,6.029,13.3031,4.60051,2470.591,2022-7-12T08:51:16Z
2022-07-12T06:52:33Z,42.805,6.029,13.3054,4.60079,2470.614,2022-7-12T08:54:19Z
2022-07-12T06:55:36Z,42.805,6.029,13.3037,4.60064,2470.637,2022-7-12T08:57:22Z
2022-07-12T06:58:39Z,42.805,6.029,13.3029,4.60078,2470.577,2022-7-12T09:00:25Z
2022-07-12T07:01:42Z,42.805,6.029,13.3043,4.60085,2470.6,2022-7-12T09:03:28Z
2022-07-12T07:04:45Z,42.805,6.029,13.3039,4.60099,2470.614,2022-7-12T09:06:31Z
2022-07-12T07:07:49Z,42.805,6.029,13.3047,4.60099,2470.614,2022-7-12T09:09:35Z
2022-07-12T07:10:52Z,42.805,6.029,13.3071,4.60092,2470.646,2022-7-12T09:12:38Z
2022-07-12T07:13:55Z,42.805,6.029,13.3038,4.60137,2470.614,2022-7-12T09:15:41Z
2022-07-12T07:16:58Z,42.805,6.029,13.3073,4.60138,2470.6,2022-7-12T09:18:44Z
2022-07-12T07:20:01Z,42.805,6.029,13.3063,4.60111,2470.624,2022-7-12T09:21:47Z
2022-07-12T07:23:04Z,42.805,6.029,13.3078,4.60082,2470.637,2022-7-12T09:24:50Z
2022-07-12T07:26:07Z,42.805,6.029,13.3061,4.60082,2470.614,2022-7-12T09:27:53Z
2022-07-12T07:29:10Z,42.805,6.029,13.3046,4.60140,2470.6,2022-7-12T09:30:56Z
2022-07-12T07:32:14Z,42.805,6.029,13.3028,4.60137,2470.6,2022-7-12T09:34:00Z
2022-07-12T07:35:17Z,42.805,6.029,13.3046,4.60107,2470.614,2022-7-12T09:37:03Z
2022-07-12T07:38:20Z,42.805,6.029,13.3054,4.60096,2470.577,2022-7-12T09:40:06Z
2022-07-12T07:41:23Z,42.805,6.029,13.3071,4.60093,2470.6,2022-7-12T09:43:09Z
2022-07-12T07:44:26Z,42.805,6.029,13.3072,4.60137,2470.6,2022-7-12T09:46:12Z
2022-07-12T07:47:29Z,42.805,6.029,13.3062,4.60056,2470.591,2022-7-12T09:49:15Z
2022-07-12T07:50:32Z,42.805,6.029,13.3040,4.60144,2470.637,2022-7-12T09:52:18Z
2022-07-12T07:53:35Z,42.805,6.029,13.3073,4.60114,2470.624,2022-7-12T09:55:21Z
2022-07-12T07:56:38Z,42.805,6.029,13.3055,4.60111,2470.6,2022-7-12T09:58:24Z
2022-07-12T07:59:42Z,42.805,6.029,13.3062,4.60116,2470.6,2022-7-12T10:01:28Z
2022-07-12T08:02:45Z,42.805,6.029,13.3058,4.60160,2470.614,2022-7-12T10:04:31Z
2022-07-12T08:05:48Z,42.805,6.029,13.3078,4.60107,2470.6,2022-7-12T10:07:34Z
2022-07-12T08:08:51Z,42.805,6.029,13.3067,4.60102,2470.577,2022-7-12T10:10:37Z
2022-07-12T08:11:54Z,42.805,6.029,13.3069,4.60102,2470.591,2022-7-12T10:13:40Z
2022-07-12T08:14:57Z,42.805,6.029,13.3039,4.60064,2470.591,2022-7-12T10:16:43Z
2022-07-12T08:18:00Z,42.805,6.029,13.3055,4.60092,2470.591,2022-7-12T10:19:46Z
2022-07-12T08:21:04Z,42.805,6.029,13.3061,4.60063,2470.577,2022-7-12T10:22:49Z
2022-07-12T08:24:07Z,42.805,6.029,13.3051,4.60104,2470.591,2022-7-12T10:25:53Z
2022-07-12T08:27:10Z,42.805,6.029,13.3052,4.60080,2470.6,2022-7-12T10:28:56Z
2022-07-12T08:30:13Z,42.805,6.029,13.3046,4.60092,2470.6,2022-7-12T10:31:59Z
2022-07-12T08:33:16Z,42.805,6.029,13.3045,4.60120,2470.567,2022-7-12T10:35:02Z
2022-07-12T08:36:19Z,42.805,6.029,13.3038,4.60077,2470.591,2022-7-12T10:38:05Z
2022-07-12T08:39:22Z,42.805,6.029,13.3060,4.60120,2470.591,2022-7-12T10:41:08Z
2022-07-12T08:42:25Z,42.805,6.029,13.3050,4.60096,2470.591,2022-7-12T10:44:11Z
2022-07-12T08:45:29Z,42.805,6.029,13.3042,4.60069,2470.553,2022-7-12T10:47:15Z
2022-07-12T08:48:32Z,42.805,6.029,13.3045,4.60107,2470.553,2022-7-12T10:50:18Z
2022-07-12T08:51:35Z,42.805,6.029,13.3026,4.60111,2470.553,2022-7-12T10:53:21Z
2022-07-12T08:54:38Z,42.805,6.029,13.3061,4.60166,2470.553,2022-7-12T10:56:24Z
2022-07-12T08:57:41Z,42.805,6.029,13.3076,4.60099,2470.553,2022-7-12T10:59:27Z
2022-07-12T09:00:44Z,42.805,6.029,13.3023,4.60082,2470.567,2022-7-12T11:02:30Z
2022-07-12T09:03:47Z,42.805,6.029,13.3046,4.60059,2470.577,2022-7-12T11:05:33Z
2022-07-12T09:06:50Z,42.805,6.029,13.3031,4.60084,2470.567,2022-7-12T11:08:36Z
2022-07-12T09:09:54Z,42.805,6.029,13.3038,4.60090,2470.577,2022-7-12T11:11:40Z
2022-07-12T09:12:57Z,42.805,6.029,13.3028,4.60099,2470.567,2022-7-12T11:14:43Z
2022-07-12T09:16:00Z,42.805,6.029,13.3039,4.60087,2470.567,2022-7-12T11:17:46Z
2022-07-12T09:19:03Z,42.805,6.029,13.3046,4.60078,2470.53,2022-7-12T11:20:49Z
2022-07-12T09:22:06Z,42.805,6.029,13.3070,4.60088,2470.567,2022-7-12T11:23:52Z
2022-07-12T09:25:09Z,42.805,6.029,13.3056,4.60122,2470.507,2022-7-12T11:26:55Z
2022-07-12T09:28:12Z,42.805,6.029,13.3048,4.60119,2470.507,2022-7-12T11:29:58Z
2022-07-12T09:31:15Z,42.805,6.029,13.3026,4.60064,2470.52,2022-7-12T11:33:01Z
2022-07-12T09:34:19Z,42.805,6.029,13.3034,4.60101,2470.53,2022-7-12T11:36:05Z
2022-07-12T09:37:22Z,42.805,6.029,13.3042,4.60111,2470.53,2022-7-12T11:39:08Z
2022-07-12T09:40:25Z,42.805,6.029,13.3046,4.60077,2470.52,2022-7-12T11:42:11Z
2022-07-12T09:43:28Z,42.805,6.029,13.3046,4.60138,2470.567,2022-7-12T11:45:14Z
2022-07-12T09:46:31Z,42.805,6.029,13.3087,4.60131,2470.544,2022-7-12T11:48:17Z
2022-07-12T09:49:34Z,42.805,6.029,13.3063,4.60124,2470.53,2022-7-12T11:51:20Z
2022-07-12T09:52:37Z,42.805,6.029,13.3053,4.60112,2470.507,2022-7-12T11:54:23Z
2022-07-12T09:55:40Z,42.805,6.029,13.3067,4.60119,2470.507,2022-7-12T11:57:26Z
2022-07-12T09:58:44Z,42.805,6.029,13.3047,4.60117,2470.507,2022-7-12T12:00:30Z
2022-07-12T10:01:47Z,42.805,6.029,13.3064,4.60168,2470.52,2022-7-12T12:03:33Z
2022-07-12T10:04:50Z,42.805,6.029,13.3073,4.60132,2470.507,2022-7-12T12:06:36Z
2022-07-12T10:07:53Z,42.805,6.029,13.3078,4.60096,2470.507,2022-7-12T12:09:39Z
2022-07-12T10:10:56Z,42.805,6.029,13.3062,4.60079,2470.507,2022-7-12T12:12:42Z
2022-07-12T10:13:59Z,42.805,6.029,13.3059,4.60114,2470.52,2022-7-12T12:15:45Z
2022-07-12T10:17:02Z,42.805,6.029,13.3058,4.60086,2470.497,2022-7-12T12:18:48Z
2022-07-12T10:20:05Z,42.805,6.029,13.3055,4.60100,2470.483,2022-7-12T12:21:51Z
2022-07-12T10:23:09Z,42.805,6.029,13.3024,4.60117,2470.507,2022-7-12T12:24:55Z
2022-07-12T10:26:12Z,42.805,6.029,13.3067,4.60170,2470.52,2022-7-12T12:27:58Z
2022-07-12T10:29:15Z,42.805,6.029,13.3027,4.60109,2470.497,2022-7-12T12:31:01Z
2022-07-12T10:32:18Z,42.805,6.029,13.3044,4.60133,2470.507,2022-7-12T12:34:04Z
2022-07-12T10:35:21Z,42.805,6.029,13.3048,4.60128,2470.483,2022-7-12T12:37:07Z
2022-07-12T10:38:24Z,42.805,6.029,13.3052,4.60127,2470.46,2022-7-12T12:40:10Z
2022-07-12T10:41:27Z,42.805,6.029,13.3072,4.60099,2470.52,2022-7-12T12:43:13Z
2022-07-12T10:44:30Z,42.805,6.029,13.3068,4.60122,2470.483,2022-7-12T12:46:16Z
2022-07-12T10:47:34Z,42.805,6.029,13.3045,4.60135,2470.483,2022-7-12T12:49:20Z
2022-07-12T10:50:37Z,42.805,6.029,13.3050,4.60123,2470.497,2022-7-12T12:52:23Z
2022-07-12T10:53:40Z,42.805,6.029,13.3054,4.60112,2470.483,2022-7-12T12:55:26Z
2022-07-12T10:56:43Z,42.805,6.029,13.3056,4.60131,2470.52,2022-7-12T12:58:29Z
2022-07-12T10:59:46Z,42.805,6.029,13.3058,4.60096,2470.507,2022-7-12T13:01:32Z
2022-07-12T11:02:49Z,42.805,6.029,13.3073,4.60117,2470.52,2022-7-12T13:04:35Z
2022-07-12T11:05:52Z,42.805,6.029,13.3059,4.60081,2470.47,2022-7-12T13:07:38Z
2022-07-12T11:08:55Z,42.805,6.029,13.3054,4.60106,2470.507,2022-7-12T13:10:41Z
2022-07-12T11:11:59Z,42.805,6.029,13.3054,4.60120,2470.497,2022-7-12T13:13:45Z
2022-07-12T11:15:02Z,42.805,6.029,13.3070,4.60120,2470.497,2022-7-12T13:16:48Z
2022-07-12T11:18:05Z,42.805,6.029,13.3088,4.60119,2470.46,2022-7-12T13:19:51Z
2022-07-12T11:21:08Z,42.805,6.029,13.3046,4.60082,2470.46,2022-7-12T13:22:54Z
2022-07-12T11:24:11Z,42.805,6.029,13.3028,4.60140,2470.474,2022-7-12T13:25:57Z
2022-07-12T11:27:14Z,42.805,6.029,13.3043,4.60144,2470.45,2022-7-12T13:29:00Z
2022-07-12T11:30:17Z,42.805,6.029,13.3055,4.60102,2470.544,2022-7-12T13:32:03Z
2022-07-12T11:33:20Z,42.805,6.029,13.3078,4.60114,2470.474,2022-7-12T13:35:06Z
2022-07-12T11:36:24Z,42.805,6.029,13.3029,4.60137,2470.474,2022-7-12T13:38:10Z
2022-07-12T11:39:27Z,42.805,6.029,13.3021,4.60132,2470.474,2022-7-12T13:41:13Z
2022-07-12T11:42:30Z,42.805,6.029,13.3041,4.60111,2470.483,2022-7-12T13:44:16Z
2022-07-12T11:45:33Z,42.805,6.029,13.3084,4.60157,2470.437,2022-7-12T13:47:19Z
2022-07-12T11:48:36Z,42.805,6.029,13.3051,4.60127,2470.474,2022-7-12T13:50:22Z
2022-07-12T11:51:39Z,42.805,6.029,13.3060,4.60127,2470.46,2022-7-12T13:53:25Z
2022-07-12T11:54:42Z,42.805,6.029,13.3061,4.60177,2470.46,2022-7-12T13:56:28Z
2022-07-12T11:57:45Z,42.805,6.029,13.3038,4.60150,2470.46,2022-7-12T13:59:31Z
2022-07-12T12:00:49Z,42.805,6.029,13.3052,4.60121,2470.52,2022-7-12T14:02:35Z
2022-07-12T12:03:52Z,42.805,6.029,13.3039,4.60138,2470.46,2022-7-12T14:05:38Z
2022-07-12T12:06:55Z,42.805,6.029,13.3061,4.60128,2470.497,2022-7-12T14:08:41Z
2022-07-12T12:09:58Z,42.805,6.029,13.3039,4.60146,2470.483,2022-7-12T14:11:44Z
2022-07-12T12:13:01Z,42.805,6.029,13.3055,4.60107,2470.45,2022-7-12T14:14:47Z
2022-07-12T12:16:04Z,42.805,6.029,13.3031,4.60133,2470.497,2022-7-12T14:17:50Z
2022-07-12T12:19:07Z,42.805,6.029,13.3037,4.60119,2470.474,2022-7-12T14:20:53Z
2022-07-12T12:22:10Z,42.805,6.029,13.3039,4.60105,2470.46,2022-7-12T14:23:56Z
2022-07-12T12:25:14Z,42.805,6.029,13.3042,4.60114,2470.483,2022-7-12T14:27:00Z
2022-07-12T12:28:17Z,42.805,6.029,13.3053,4.60112,2470.497,2022-7-12T14:30:03Z
2022-07-12T12:31:20Z,42.805,6.029,13.3055,4.60117,2470.483,2022-7-12T14:33:06Z
2022-07-12T12:34:23Z,42.805,6.029,13.3039,4.60144,2470.46,2022-7-12T14:36:09Z
2022-07-12T12:37:26Z,42.805,6.029,13.3033,4.60122,2470.45,2022-7-12T14:39:12Z
2022-07-12T12:40:29Z,42.805,6.029,13.3050,4.60116,2470.474,2022-7-12T14:42:15Z
2022-07-12T12:43:32Z,42.805,6.029,13.3038,4.60096,2470.46,2022-7-12T14:45:18Z
2022-07-12T12:46:35Z,42.805,6.029,13.3036,4.60127,2470.507,2022-7-12T14:48:21Z
2022-07-12T12:49:39Z,42.805,6.029,13.3024,4.60102,2470.483,2022-7-12T14:51:25Z
2022-07-12T12:52:42Z,42.805,6.029,13.3023,4.60105,2470.507,2022-7-12T14:54:28Z
2022-07-12T12:55:45Z,42.805,6.029,13.3027,4.60082,2470.474,2022-7-12T14:57:31Z
2022-07-12T12:58:48Z,42.805,6.029,13.3026,4.60087,2470.483,2022-7-12T15:00:34Z
2022-07-12T13:01:51Z,42.805,6.029,13.3025,4.60107,2470.474,2022-7-12T15:03:37Z
2022-07-12T13:04:54Z,42.805,6.029,13.3051,4.60086,2470.474,2022-7-12T15:06:40Z
2022-07-12T13:07:57Z,42.805,6.029,13.3039,4.60103,2470.497,2022-7-12T15:09:43Z
2022-07-12T13:11:00Z,42.805,6.029,13.3042,4.60098,2470.52,2022-7-12T15:12:46Z
2022-07-12T13:14:04Z,42.805,6.029,13.3035,4.60128,2470.497,2022-7-12T15:15:50Z
2022-07-12T13:17:07Z,42.805,6.029,13.3029,4.60114,2470.483,2022-7-12T15:18:53Z
2022-07-12T13:20:10Z,42.805,6.029,13.3042,4.60112,2470.483,2022-7-12T15:21:56Z
2022-07-12T13:23:13Z,42.805,6.029,13.3035,4.60095,2470.474,2022-7-12T15:24:59Z
2022-07-12T13:26:16Z,42.805,6.029,13.3046,4.60097,2470.46,2022-7-12T15:28:02Z
2022-07-12T13:29:19Z,42.805,6.029,13.3029,4.60107,2470.52,2022-7-12T15:31:05Z
2022-07-12T13:32:22Z,42.805,6.029,13.3056,4.60097,2470.507,2022-7-12T15:34:08Z
2022-07-12T13:35:25Z,42.805,6.029,13.3041,4.60096,2470.507,2022-7-12T15:37:11Z
2022-07-12T13:38:29Z,42.805,6.029,13.3043,4.60112,2470.52,2022-7-12T15:40:15Z
2022-07-12T13:41:32Z,42.805,6.029,13.3041,4.60102,2470.507,2022-7-12T15:43:18Z
2022-07-12T13:44:35Z,42.805,6.029,13.3050,4.60102,2470.507,2022-7-12T15:46:21Z
2022-07-12T13:47:38Z,42.805,6.029,13.3048,4.60089,2470.544,2022-7-12T15:49:24Z
2022-07-12T13:50:41Z,42.805,6.029,13.3036,4.60112,2470.497,2022-7-12T15:52:27Z
2022-07-12T13:53:44Z,42.805,6.029,13.3050,4.60095,2470.52,2022-7-12T15:55:30Z
2022-07-12T13:56:47Z,42.805,6.029,13.3027,4.60113,2470.507,2022-7-12T15:58:33Z
2022-07-12T13:59:50Z,42.805,6.029,13.3041,4.60116,2470.483,2022-7-12T16:01:36Z
2022-07-12T14:02:54Z,42.805,6.029,13.3052,4.60135,2470.507,2022-7-12T16:04:40Z
2022-07-12T14:05:57Z,42.805,6.029,13.3036,4.60114,2470.507,2022-7-12T16:07:43Z
2022-07-12T14:09:00Z,42.805,6.029,13.3046,4.60101,2470.497,2022-7-12T16:10:46Z
2022-07-12T14:12:03Z,42.805,6.029,13.3039,4.60104,2470.53,2022-7-12T16:13:49Z
2022-07-12T14:15:06Z,42.805,6.029,13.3051,4.60102,2470.53,2022-7-12T16:16:52Z
2022-07-12T14:18:09Z,42.805,6.029,13.3043,4.60111,2470.53,2022-7-12T16:19:55Z
2022-07-12T14:21:12Z,42.805,6.029,13.3014,4.60099,2470.507,2022-7-12T16:22:58Z
2022-07-12T14:24:15Z,42.805,6.029,13.3032,4.60096,2470.553,2022-7-12T16:26:01Z
2022-07-12T14:27:19Z,42.805,6.029,13.3021,4.60102,2470.567,2022-7-12T16:29:05Z
2022-07-12T14:30:22Z,42.805,6.029,13.3031,4.60072,2470.553,2022-7-12T16:32:08Z
2022-07-12T14:33:25Z,42.805,6.029,13.3034,4.60087,2470.591,2022-7-12T16:35:11Z
2022-07-12T14:36:28Z,42.805,6.029,13.3029,4.60098,2470.507,2022-7-12T16:38:14Z
2022-07-12T14:39:31Z,42.805,6.029,13.3036,4.60099,2470.553,2022-7-12T16:41:17Z
2022-07-12T14:42:34Z,42.805,6.029,13.3041,4.60111,2470.553,2022-7-12T16:44:20Z
2022-07-12T14:45:37Z,42.805,6.029,13.3041,4.60123,2470.577,2022-7-12T16:47:23Z
2022-07-12T14:48:40Z,42.805,6.029,13.3029,4.60093,2470.553,2022-7-12T16:50:26Z
2022-07-12T14:51:44Z,42.805,6.029,13.3043,4.60107,2470.553,2022-7-12T16:53:30Z
2022-07-12T14:54:47Z,42.805,6.029,13.3053,4.60119,2470.577,2022-7-12T16:56:33Z
2022-07-12T14:57:50Z,42.805,6.029,13.3025,4.60110,2470.553,2022-7-12T16:59:36Z
2022-07-12T15:00:53Z,42.805,6.029,13.3039,4.60104,2470.553,2022-7-12T17:02:39Z
2022-07-12T15:03:56Z,42.805,6.029,13.3034,4.60109,2470.6,2022-7-12T17:05:42Z
2022-07-12T15:06:59Z,42.805,6.029,13.3024,4.60101,2470.6,2022-7-12T17:08:45Z
2022-07-12T15:10:02Z,42.805,6.029,13.3038,4.60097,2470.553,2022-7-12T17:11:48Z
2022-07-12T15:13:05Z,42.805,6.029,13.3040,4.60106,2470.553,2022-7-12T17:14:52Z